Lincoln, NE

10:24 AM CST on February 23, 2018 (GMT -0600)
Lincoln Municipal

Weather History for KLNK - November, 2012

Change the Weather History Date:

Friday, November 23, 2012

  Actual Average Record
Temperature  
Mean Temperature 29 °F 35 °F  
Max Temperature 41 °F 46 °F 71 °F (2017)
Min Temperature 16 °F 24 °F -2 °F (1898)
Degree Days  
Heating Degree Days 36 30  
Month to date heating degree days 473 557  
Since 1 July heating degree days 1055 1036  
Cooling Degree Days 0 0  
Month to date cooling degree days 0 0  
Year to date cooling degree days 1491 1173  
Moisture  
Dew Point 9 °F    
Average Humidity 43    
Maximum Humidity 60    
Minimum Humidity 26    
Precipitation  
Precipitation 0.00 in 0.04 in 1.59 in (1931)
Month to date precipitation 0.15 1.14  
Year to date precipitation 17.64 27.71  
Snow  
Snow 0.00 in 0.10 in - ()
Month to date snowfall 0.0 1.3  
Since 1 July snowfall 0.0 2.0  
Snow Depth 0.00 in    
Sea Level Pressure  
Sea Level Pressure 30.50 in    
Wind  
Wind Speed 12 mph (NW)    
Max Wind Speed 31 mph    
Max Gust Speed 40 mph    
Visibility 10 miles    
Events      
T = Trace of Precipitation, MM = Missing Value Source: NWS Daily Summary

Daily Weather History Graph

Daily Weather History Graph

Search for Another Location

Airport or City:

Trip Planner

Search our weather history database for the weather conditions in past years. The results will help you decide how hot, cold, wet, or windy it might be!

Date:

Astronomy

Nov. 23, 2012 Rise Set
Actual Time 7:24 AM CST 5:02 PM CST
Civil Twilight 6:54 AM CST 5:32 PM CST
Nautical Twilight 6:20 AM CST 6:06 PM CST
Astronomical Twilight 5:47 AM CST 6:39 PM CST
Moon 2:19 PM CST 2:42 AM CST
Length of Visible Light 10h 38m
Length of Day
9h 38m
Waxing Gibbous, 80% of the Moon is Illuminated
Nov 23
Waxing Gibbous
Nov 28
Full
Dec 6
Last Quarter
Dec 13
New
Dec 19
First Quarter

Hourly Weather History & Observations

Time (CST) Temp. Windchill Dew Point Humidity Pressure Visibility Wind Dir Wind Speed Gust Speed Precip Events Conditions
12:54 AM 37.9 °F 26.3 °F 17.1 °F 43% 30.34 in 10.0 mi NW 26.5 mph 40.3 mph N/A   Clear
1:54 AM 32.0 °F 18.6 °F 14.0 °F 48% 30.38 in 10.0 mi NW 25.3 mph 34.5 mph N/A   Clear
2:54 AM 30.0 °F 16.6 °F 15.1 °F 54% 30.41 in 10.0 mi NNW 23.0 mph 27.6 mph N/A   Clear
3:54 AM 28.0 °F 14.9 °F 12.9 °F 53% 30.43 in 10.0 mi NW 19.6 mph 27.6 mph N/A   Clear
4:54 AM 27.0 °F 13.9 °F 12.9 °F 56% 30.47 in 10.0 mi NW 18.4 mph 24.2 mph N/A   Clear
5:54 AM 25.0 °F 12.2 °F 12.9 °F 60% 30.49 in 10.0 mi NW 16.1 mph - N/A   Clear
6:54 AM 24.1 °F 12.0 °F 12.9 °F 62% 30.51 in 10.0 mi NW 13.8 mph - N/A   Clear
7:54 AM 24.1 °F 12.5 °F 12.0 °F 60% 30.54 in 10.0 mi NW 12.7 mph - N/A   Clear
8:54 AM 25.0 °F 11.7 °F 12.9 °F 60% 30.56 in 10.0 mi NW 17.3 mph - N/A   Clear
9:54 AM 27.0 °F 14.3 °F 10.9 °F 51% 30.58 in 10.0 mi NNW 17.3 mph - N/A   Clear
10:54 AM 30.0 °F 17.5 °F 9.0 °F 41% 30.58 in 10.0 mi NW 19.6 mph - N/A   Clear
11:54 AM 33.1 °F 22.6 °F 7.0 °F 34% 30.56 in 10.0 mi NW 16.1 mph - N/A   Clear
12:54 PM 34.0 °F 24.2 °F 6.1 °F 31% 30.54 in 10.0 mi NW 15.0 mph - N/A   Clear
1:54 PM 36.0 °F 26.3 °F 5.0 °F 27% 30.52 in 10.0 mi NNW 16.1 mph 23.0 mph N/A   Clear
2:54 PM 36.0 °F 26.7 °F 3.0 °F 25% 30.52 in 10.0 mi NW 15.0 mph - N/A   Clear
3:54 PM 36.0 °F 27.1 °F 3.9 °F 26% 30.52 in 10.0 mi NNW 13.8 mph - N/A   Clear
4:54 PM 34.0 °F 27.2 °F 5.0 °F 30% 30.51 in 10.0 mi NW 8.1 mph - N/A   Clear
5:54 PM 30.9 °F 26.2 °F 3.9 °F 32% 30.51 in 10.0 mi NW 4.6 mph - N/A   Clear
6:54 PM 23.0 °F - 5.0 °F 46% 30.52 in 10.0 mi Calm Calm - N/A   Clear
7:54 PM 26.1 °F - 5.0 °F 41% 30.50 in 10.0 mi Calm Calm - N/A   Clear
8:54 PM 21.9 °F - 8.1 °F 55% 30.50 in 10.0 mi Calm Calm - N/A   Clear
9:54 PM 19.9 °F - 6.1 °F 55% 30.48 in 10.0 mi Calm Calm - N/A   Clear
10:54 PM 19.9 °F - 7.0 °F 57% 30.47 in 10.0 mi Calm Calm - N/A   Clear
11:54 PM 18.0 °F - 7.0 °F 62% 30.46 in 10.0 mi Calm Calm - N/A   Clear